Regional Weather Roundup
Issued by NWS

Home | Current Version | Previous Version | Graphics & Text | Print | Product List | Glossary On
Versions: 1 2 3 4 5 6 7 8 9 10 11 12 13 14 15 16 17 18 19 20 21 22 23 24 25 26 27 28 29 30 31 32 33 34 35 36 37 38 39 40 41 42 43 44 45 46 47 48 49
000
ASUS43 KDMX 210607
RWRIA

WEATHER ROUNDUP FOR IOWA
NATIONAL WEATHER SERVICE DES MOINES IA
100 AM CDT TUE OCT 21 2014

NOTE: "FAIR" INDICATES FEW OR NO CLOUDS BELOW 12,000 FEET WITH NO
SIGNIFICANT WEATHER AND/OR OBSTRUCTIONS TO VISIBILITY.

* - THESE STATIONS ARE NOT NWS STATIONS...THUS NOT UNDER NWS
QUALITY CONTROL.  THEY ALSO DO NOT REPORT WEATHER SUCH
AS PRECIPITATION OR FOG.

IAZ001>003-012>014-020>022-031>034-043>046-210700-
   NORTHWEST IOWA

CITY           SKY/WX    TMP DP  RH WIND       PRES   REMARKS
CARROLL *      CLOUDY    39  36  87 CALM      30.07S
CHEROKEE *     CLEAR     38  37  99 CALM      30.08S
DENISON *      CLEAR     41  39  93 CALM      30.06S
LE MARS *      CLEAR     39  36  87 CALM      30.07S
ORANGE CITY *  CLEAR     52  37  58 E5        30.06F
SHELDON *      CLEAR     37  34  87 CALM      30.06S
SIOUX CITY     CLEAR     38  36  92 CALM      30.07R
6HR MIN TEMP:  38; 6HR MAX TEMP:  53;

SPENCER        CLEAR     36  33  89 W3        30.08R
6HR MIN TEMP:  35; 6HR MAX TEMP:  58;

STORM LAKE *   CLEAR     48  37  66 NE5       30.08S
$$

IAZ055>058-069>071-079>083-090>094-210700-
   SOUTHWEST IOWA

CITY           SKY/WX    TMP DP  RH WIND       PRES   REMARKS
ATLANTIC *     CLEAR     39  37  93 N3        30.07S
AUDUBON *      CLEAR     39  34  81 CALM      30.08S
CLARINDA *     CLEAR     39  39 100 CALM      30.09S FOG
COUNCIL BLFS * CLEAR     55  39  54 CALM      30.06S
CRESTON *      CLEAR     46  39  76 NW5       30.07S
HARLAN  *      CLEAR     41  41 100 CALM      30.10S
LAMONI         CLEAR     47  40  76 W6        30.06S
6HR MIN TEMP:  47; 6HR MAX TEMP:  60;

RED OAK *      CLEAR     41  39  93 CALM      30.07S
SHENANDOAH *   CLEAR     43  41  93 CALM      30.08S
$$

IAZ047>049-059>061-072>074-084-210700-
   CENTRAL IOWA

CITY           SKY/WX    TMP DP  RH WIND       PRES   REMARKS
AMES           CLEAR     40  37  89 CALM      30.06R
6HR MIN TEMP:  40; 6HR MAX TEMP:  58;

ANKENY *       CLEAR     43  41  93 CALM      30.06R
CHARITON *     CLEAR     48  41  76 W5        30.05S
DES MOINES     CLEAR     49  41  74 CALM      30.06R
6HR MIN TEMP:  48; 6HR MAX TEMP:  63;

GRINNELL*      CLEAR     45  40  82 NW3       30.06R
KNOXVILLE *    CLEAR     46  39  76 W6        30.04R
MARSHALLTOWN   CLEAR     41  37  86 NW5       30.05R
6HR MIN TEMP:  40; 6HR MAX TEMP:  57;

PELLA *        CLEAR     47  43  86 NW3       30.06R
PERRY *          N/A     41  39  93 NW3       30.07R
$$

IAZ004>006-015-016-023>025-035-036-210700-
   NORTH CENTRAL IOWA

CITY           SKY/WX    TMP DP  RH WIND       PRES   REMARKS
ALGONA *       CLEAR     43  37  81 N5        30.08R
CLARION *      CLEAR     37  36  93 CALM      30.07R
ESTHERVILLE    CLEAR     38  34  85 NW5       30.08R WCI  34
6HR MIN TEMP:  38; 6HR MAX TEMP:  57;

FORT DODGE *   CLEAR     37  36  93 CALM      30.08R
MASON CITY     CLEAR     39  37  92 N3        30.09R
6HR MIN TEMP:  37; 6HR MAX TEMP:  50;

FOREST CITY *  CLEAR     37  37 100 CALM      30.07R
IOWA FALLS *     N/A     39  36  87 CALM      30.08R
$$

IAZ007>011-017>019-026>030-037>042-050>054-066-210700-
   NORTHEAST IOWA

CITY           SKY/WX    TMP DP  RH WIND       PRES   REMARKS
CEDAR RAPIDS   CLEAR     46  41  82 E7        30.04S
6HR MIN TEMP:  46; 6HR MAX TEMP:  54;

CHARLES CITY * CLEAR     43  39  87 NE6       30.08R
CLINTON *      CLEAR     41  37  87 N6        30.07S
DECORAH *      MOCLDY    41  39  93 CALM      30.06R
DUBUQUE        CLEAR     39  37  92 CALM      30.05S
6HR MIN TEMP:  39; 6HR MAX TEMP:  53;

MONTICELLO *   CLEAR     39  39 100 CALM      30.05S
OELWEIN *      CLEAR     43  41  93 NE5       30.07R
WATERLOO       CLEAR     39  36  89 CALM      30.06R
6HR MIN TEMP:  38; 6HR MAX TEMP:  57;

$$

IAZ064-065-067-068-078-210700-
   EAST CENTRAL IOWA

CITY           SKY/WX    TMP DP  RH WIND       PRES   REMARKS
DAVENPORT      CLEAR     45  40  82 NE3       30.04S
6HR MIN TEMP:  44; 6HR MAX TEMP:  55;

IOWA CITY      CLEAR     48  42  80 NE5       30.06R
6HR MIN TEMP:  43; 6HR MAX TEMP:  60;

MT. PLEASANT * CLEAR     47  41  78 N5        30.03S
MUSCATINE *    CLEAR     45  39  81 CALM      30.05R
QUAD CITIES    CLEAR     43  40  89 CALM      30.04R
6HR MIN TEMP:  41; 6HR MAX TEMP:  61;

$$

IAZ062-063-075>077-085>089-095>099-210700-
   SOUTHEAST IOWA

CITY           SKY/WX    TMP DP  RH WIND       PRES   REMARKS
BURLINGTON     CLEAR     48  42  80 N5        30.03R
6HR MIN TEMP:  44; 6HR MAX TEMP:  60;

FAIRFIELD *    CLEAR     45  39  81 NW5       30.04S
FORT MADISON * CLEAR     52  45  76 NW5       30.04R
KEOKUK *       CLEAR     52  45  76 NW5       30.03R
OSKALOOSA *      N/A     44  39  82 N3        30.05R
CENTERVILLE *  CLEAR     43  39  87 NW5       30.06R
OTTUMWA        CLEAR     44  39  82 NW5       30.04S
6HR MIN TEMP:  43; 6HR MAX TEMP:  58;

WASHINGTON *   CLEAR     50  43  76 N7        30.04R
$$

ABBREVIATIONS USED IN REMARKS
   TC - TEMPERATURES IN CELSIUS
  WCI - WIND CHILL INDEX
   HX - HEAT INDEX
  VSB - VISIBILITY
$$



USA.gov is the U.S. government's official web portal to all federal, state and local government web resources and services.